Location: Berlin
(52.5200°N, 13.4050°E)
Time: 15:12:04
(UTC+01:00)

ISS - Pass Details

Date: 27 February 2019
Orbit: 406 x 411 km, 51.6° (Epoch: 21 March)

Event Time Altitude Azimuth Distance (km) Brightness Sun altitude
Exits shadow 06:19:08 - 235° (SW) 2,019 -0.8 -6.7°
Reaches altitude 10° 06:20:31 10° 230° (SW) 1,464 -1.4 -6.5°
Maximum altitude 06:23:39 42° 159° (SSE) 592 -2.7 -6.0°
Drops below altitude 10° 06:26:47 10° 86° (E) 1,471 0.7 -5.5°
Sets 06:28:56 0° 80° (E) 2,334 1.8 -5.2°
